Location: New Canada
(47.1017°N, 68.5042°W)
Time: 13:54:11
(UTC+00:00)

RS-44 - Visible Passes

Search period start: 01 April 2023 00:00
Search period end: 11 April 2023 00:00
Orbit: 1174 x 1511 km, 82.5° (Epoch: 31 March)

Date Brightness Start Highest point End Pass type
(mag) Time Alt. Az. Time Alt. Az. Time Alt. Az.
01 Apr ? 03:47:39 10° NNE 03:53:24 20° ENE 03:55:40 18° ENE visible
01 Apr ? 05:39:55 10° N 05:48:13 79° E 05:48:14 79° E visible
01 Apr ? 07:34:28 10° NNW 07:40:50 26° W 07:40:50 26° W visible
02 Apr ? 04:10:49 10° N 04:17:50 29° ENE 04:19:14 28° E visible
02 Apr ? 06:03:45 10° NNW 06:11:49 74° W 06:11:49 74° W visible
02 Apr ? 07:59:23 10° NW 08:04:06 16° WNW 08:04:24 16° WNW visible
03 Apr ? 04:34:15 10° N 04:42:04 42° ENE 04:42:50 41° E visible
03 Apr ? 06:27:43 10° NNW 06:35:25 51° W 06:35:25 51° W visible
04 Apr ? 03:06:17 10° NNE 03:10:46 15° NE 03:13:51 13° ENE visible
04 Apr ? 04:57:51 10° N 05:06:08 61° ENE 05:06:26 61° E visible
04 Apr ? 06:51:53 10° NNW 06:59:01 35° W 06:59:01 35° W visible
05 Apr ? 03:29:06 10° N 03:35:22 22° ENE 03:37:28 21° E visible
05 Apr ? 05:21:35 10° N 05:30:03 86° E 05:30:03 86° E visible
05 Apr ? 07:16:22 10° NNW 07:22:32 23° WNW 07:22:38 23° W visible
06 Apr ? 03:52:22 10° N 03:59:46 32° ENE 04:01:05 31° E visible
06 Apr ? 05:45:28 10° NNW 05:53:41 67° W 05:53:41 67° W visible
06 Apr ? 07:41:30 10° NW 07:45:42 15° WNW 07:46:16 15° WNW visible
07 Apr ? 02:25:43 10° NNE 02:28:01 11° NE 02:30:20 10° ENE visible
07 Apr ? 04:15:52 10° N 04:23:58 47° ENE 04:24:44 46° E visible
07 Apr ? 06:09:29 10° NNW 06:17:19 46° W 06:17:19 46° W visible
08 Apr ? 02:47:35 10° NNE 02:52:47 17° NE 02:55:48 15° ENE visible
08 Apr ? 04:39:31 10° N 04:48:00 67° ENE 04:48:23 67° E visible
08 Apr ? 06:33:43 10° NNW 06:40:53 31° W 06:40:58 31° W visible
09 Apr ? 03:10:36 10° N 03:17:21 25° ENE 03:19:28 23° E visible
09 Apr ? 05:03:18 10° N 05:11:52 87° W 05:12:03 86° SW visible
09 Apr ? 06:58:19 10° NNW 07:04:11 21° WNW 07:04:38 21° W visible
10 Apr ? 03:33:58 10° N 03:41:42 36° ENE 03:43:08 34° E visible
10 Apr ? 05:27:13 10° NNW 05:35:36 61° W 05:35:43 61° W visible
10 Apr ? 07:23:48 10° NW 07:27:18 13° WNW 07:28:19 13° WNW visible
